Location: Columbia
(38.9520°N, 92.3340°W)
Time: 14:07:50
(UTC-06:00)

Daily predictions for brighter satellites

Satellite Brightness Start Highest point End
(mag) Time Altitude Azimuth Time Altitude Azimuth Time Altitude Azimuth
Cosmos 2233 Rocket 4.1 18:08:34 10° N 18:14:44 54° E 18:20:47 10° SSE
Cosmos 2219 Rocket 2.3 18:09:12 10° NNW 18:14:55 89° ENE 18:20:33 10° SSE
CENTAUR R/B 3.5 18:12:17 10° SSE 18:16:47 23° ESE 18:21:42 10° ENE
MOS 1-B Rocket 4.1 18:12:11 10° SSE 18:18:44 68° ENE 18:24:31 10° N
Tiangong 2 1.7 18:19:12 10° WNW 18:22:15 44° N 18:25:19 10° E
Cosmos 2219 4.1 18:16:55 10° SW 18:22:23 53° WNW 18:27:54 10° NNE
Cosmos 2227 Rocket 2.2 18:19:41 10° S 18:25:15 64° ESE 18:30:51 10° NNE
NOAA 12 4.1 18:20:03 10° SSE 18:25:18 68° ENE 18:30:36 10° N
Cosmos 2237 Rocket 2.3 18:21:58 10° NNW 18:27:31 57° ENE 18:33:02 10° SE
FREGAT/IRIS 3.9 18:26:32 10° ESE 18:28:45 20° ENE 18:31:00 10° NNE
Cosmos 405 3.5 18:25:47 10° SSE 18:29:01 36° E 18:32:16 10° NNE
SL-16 R/B 3.2 18:25:01 10° N 18:29:39 25° NE 18:34:16 10° ESE
Cosmos 2221 Rocket 4.3 18:25:23 10° NNW 18:29:44 59° W 18:34:04 10° S
H-2A R/B 3.1 18:29:42 10° SE 18:33:24 42° ENE 18:37:06 10° N
FENGYUN 3A 3.8 18:30:01 10° S 18:35:25 82° WSW 18:40:51 10° NNW
Iridium 4 Rocket 4.2 18:34:49 10° NNE 18:38:57 26° E 18:42:47 10° SE
Cosmos 2297 Rocket 2.2 18:33:56 10° SSW 18:39:32 73° ESE 18:45:12 10° NNE
Cosmos 1624 Rocket 4.1 18:35:37 10° NNW 18:40:52 85° WSW 18:46:03 10° SSE
NOSS 3-2 (A) 3.8 18:36:42 10° SW 18:42:33 66° NW 18:49:02 10° NNE
ATLAS 3B R/B 3.8 18:36:14 10° WSW 18:43:07 45° NW 18:49:47 10° NNE
Cosmos 2285 Rocket 4.3 18:38:06 10° SSW 18:44:23 72° WNW 18:50:47 10° NNE
COSMO-SKYMED 1 3.7 18:40:24 10° N 18:44:34 47° WNW 18:48:43 10° SW
CZ-2D R/B 4.5 18:43:20 10° ESE 18:46:21 22° ENE 18:49:22 10° NNE
Lacrosse 5 1.8 18:44:44 10° NW 18:49:50 90° NE 18:54:53 10° SE
ALOS 3.4 18:47:32 10° S 18:52:02 48° W 18:56:35 10° NNW
Cosmos 1812 2.8 18:50:06 10° N 18:53:55 55° E 18:57:42 10° SSE
FALCON 9 R/B 4.1 18:49:00 10° WSW 18:55:44 72° S 19:15:44 18° E
ERS-2 2.0 18:56:56 10° SSE 19:00:35 68° ENE 19:04:15 10° N
Cosmos 2333 Rocket 3.5 18:55:25 10° NW 19:00:45 43° WSW 19:06:02 10° S
Meteor 1-25 Rocket 4.2 18:55:47 10° S 19:01:12 59° E 19:06:39 10° NNE
Cosmos 44 3.8 18:57:44 10° NNW 19:02:31 43° NE 19:05:50 19° ESE
Cosmos 2034 Rocket 4.4 18:57:41 10° N 19:03:40 41° ENE 19:09:36 10° SE
Thor Agena Rocket 3.7 19:00:04 10° NNE 19:04:57 44° E 19:09:45 10° S
BREEZE-M DEB (TANK) 4.2 19:02:49 10° S 19:05:20 24° ESE 19:05:46 24° ESE
Cosmos 2082 3.8 19:00:34 10° SSW 19:06:10 76° WNW 19:11:49 10° NNE
Cosmos 1437 Rocket 3.7 19:06:56 10° SSE 19:09:55 29° ESE 19:09:55 29° ESE
USA 32 4.2 19:06:48 10° SSE 19:11:49 50° E 19:16:51 10° NNE
Cosmos 1633 2.3 19:08:22 10° S 19:11:55 76° E 19:15:29 10° N
Cosmos 1674 Rocket 3.6 19:08:07 10° N 19:12:29 82° W 19:16:48 10° S
Envisat 3.3 19:08:20 10° SE 19:13:06 44° ENE 19:17:56 10° N
CZ-4C R/B 4.5 19:11:12 10° N 19:15:02 15° NNE 19:16:56 14° NE
Cosmos 1269 Rocket 4.5 19:11:09 10° SSE 19:15:59 37° E 19:18:52 21° NE
SL-8 R/B 3.6 19:11:19 10° WSW 19:16:07 89° NNW 19:18:35 29° ENE
Cosmos 1908 Rocket 3.5 19:13:07 10° S 19:17:34 75° E 19:22:03 10° N
SeaSat 1 2.4 19:18:12 17° SE 19:21:53 63° ENE 19:26:47 10° NNW
HJ-1C 3.3 19:18:47 10° SSE 19:22:12 89° ENE 19:25:38 10° NNW
USA 215 3.3 19:18:49 12° NE 19:24:53 80° NW 19:31:24 10° SW
ARGOS Delta rocket 3.7 19:20:39 10° NNE 19:25:32 61° E 19:30:06 10° S
Resurs 01 Rocket 2.5 19:33:23 33° NE 19:33:23 33° NE 19:36:23 10° N
OAO 2 Rocket 3.9 19:28:59 10° SW 19:33:33 38° SSE 19:34:20 36° SE
Cosmos 921 Rocket 3.4 19:29:43 10° N 19:33:43 45° NE 19:33:43 45° NE
Okean 3 4.3 19:32:37 10° NNW 19:36:40 51° W 19:40:42 10° S
Shenzhou-11 Module 4.2 19:34:45 10° W 19:37:01 20° SW 19:37:25 19° SSW
SJ-6B 3.3 19:40:42 10° S 19:44:21 56° W 19:48:07 10° NNW
Cosmos 1975 Rocket 3.4 19:41:40 10° N 19:45:11 51° NNE 19:45:11 51° NNE
Tsikada Rocket 3.9 19:47:27 10° S 19:53:50 82° E 20:00:17 10° N
USA 267 3.6 19:56:05 41° NE 19:57:02 44° NNE 20:03:09 10° NW
Tiangong 2 3.3 19:56:00 10° WNW 19:57:38 27° W 19:57:38 27° W
Okean 1 3.9 19:55:37 10° NNW 19:59:32 56° W 19:59:45 55° WSW
Meteor 1-13 Rocket 4.5 19:57:15 10° N 20:01:35 51° NNE 20:01:35 51° NNE
Spot 2 Rocket 4.0 20:04:39 47° N 20:04:39 47° N 20:08:21 10° N
Cosmos 44 Rocket 3.5 19:59:16 10° NW 20:04:19 74° WSW 20:04:47 68° SSW
CENTAUR R/B 3.0 20:00:52 10° SW 20:06:45 57° NW 20:11:51 18° NNE
Geosat 4.3 20:05:21 29° N 20:07:49 63° WNW 20:12:46 10° SW
SL-16 R/B 3.1 20:08:35 10° NW 20:13:57 46° WSW 20:17:33 20° S
CZ-4C R/B 4.0 20:58:13 10° NNW 21:02:08 33° N 21:02:08 33° N
